Change the Weather History Date:

Saturday, February 23, 2013

  Actual Average Record
Temperature  
Mean Temperature 24 °F -  
Max Temperature 28 °F 36 °F 62 °F (1984)
Min Temperature 21 °F 22 °F -7 °F (2015)
Degree Days  
Heating Degree Days 40    
Moisture  
Dew Point 20 °F    
Average Humidity 78    
Maximum Humidity 86    
Minimum Humidity 64    
Precipitation  
Precipitation 0.00 in - - ()
Sea Level Pressure  
Sea Level Pressure 29.86 in    
Wind  
Wind Speed 10 mph (WSW)    
Max Wind Speed 15 mph    
Max Gust Speed 18 mph    
Visibility 9 miles    
Events Snow    
Averages and records for this station are not official NWS values.
T = Trace of Precipitation, MM = Missing Value Source: NWS Daily Summary

Daily Weather History Graph

Daily Weather History Graph

Search for Another Location

Airport or City:

Trip Planner

Search our weather history database for the weather conditions in past years. The results will help you decide how hot, cold, wet, or windy it might be!

Date:

Astronomy

Feb. 23, 2013 Rise Set
Actual Time 6:37 AM CST 5:34 PM CST
Civil Twilight 6:08 AM CST 6:02 PM CST
Nautical Twilight 5:35 AM CST 6:35 PM CST
Astronomical Twilight 5:02 AM CST 7:08 PM CST
Moon 3:42 PM CST (2/23) 5:01 AM CST (2/23)
Length of Visible Light 11h 54m
Length of Day
10h 56m
Waxing Gibbous, 95% of the Moon is Illuminated
Feb 23
Waxing Gibbous
Feb 25
Full
Mar 4
Last Quarter
Mar 11
New
Mar 19
First Quarter

Hourly Weather History & Observations

Time (CST) Temp. Windchill Dew Point Humidity Pressure Visibility Wind Dir Wind Speed Gust Speed Precip Events Conditions
12:15 AM 28.4 °F 19.1 °F 24.8 °F 86% 29.83 in 7.0 mi WSW 10.4 mph - N/A   Overcast
12:35 AM 28.4 °F 19.7 °F 24.8 °F 86% 29.83 in 7.0 mi SW 9.2 mph - N/A   Overcast
12:55 AM 28.4 °F 20.4 °F 23.0 °F 80% 29.83 in 7.0 mi WSW 8.1 mph - N/A   Overcast
1:15 AM 28.4 °F 19.1 °F 23.0 °F 80% 29.83 in 10.0 mi WSW 10.4 mph - N/A   Overcast
1:35 AM 28.4 °F 19.7 °F 23.0 °F 80% 29.83 in 7.0 mi WSW 9.2 mph - N/A   Overcast
1:55 AM 28.4 °F 20.4 °F 23.0 °F 80% 29.83 in 10.0 mi WSW 8.1 mph - N/A   Overcast
2:15 AM 28.4 °F 18.5 °F 23.0 °F 80% 29.83 in 10.0 mi WSW 11.5 mph - N/A   Overcast
2:35 AM 28.4 °F 19.1 °F 23.0 °F 80% 29.83 in 7.0 mi WSW 10.4 mph - N/A Snow Light Snow
2:55 AM 28.4 °F 19.1 °F 23.0 °F 80% 29.83 in 7.0 mi WSW 10.4 mph - N/A   Overcast
3:15 AM 28.4 °F 18.5 °F 23.0 °F 80% 29.83 in 10.0 mi WSW 11.5 mph - N/A   Overcast
3:35 AM 26.6 °F 17.5 °F 23.0 °F 86% 29.83 in 10.0 mi WSW 9.2 mph - N/A   Overcast
3:55 AM 26.6 °F 15.7 °F 23.0 °F 86% 29.83 in 10.0 mi WSW 12.7 mph - N/A   Overcast
4:15 AM 26.6 °F 17.5 °F 21.2 °F 80% 29.84 in 10.0 mi WSW 9.2 mph 17.3 mph N/A   Overcast
4:35 AM 26.6 °F 16.2 °F 21.2 °F 80% 29.84 in 10.0 mi WSW 11.5 mph 16.1 mph N/A Snow Light Snow
4:55 AM 26.6 °F 16.2 °F 21.2 °F 80% 29.84 in 10.0 mi WSW 11.5 mph - N/A   Overcast
5:15 AM 26.6 °F 14.7 °F 21.2 °F 80% 29.84 in 10.0 mi WSW 15.0 mph - N/A   Overcast
5:35 AM 26.6 °F 15.7 °F 21.2 °F 80% 29.85 in 10.0 mi WSW 12.7 mph - N/A   Overcast
6:45 AM 24.8 °F 14.6 °F 19.4 °F 80% 29.86 in 7.0 mi WSW 10.4 mph - N/A   Overcast
7:45 AM 24.8 °F 14.0 °F 19.4 °F 80% 29.86 in 7.0 mi SW 11.5 mph - N/A   Overcast
8:45 AM 24.8 °F 12.9 °F 19.4 °F 80% 29.86 in 7.0 mi WSW 13.8 mph - N/A   Overcast
9:50 AM 26.6 °F 15.7 °F 19.4 °F 74% 29.86 in 7.0 mi WSW 12.7 mph 18.4 mph N/A Snow Light Snow
10:45 AM 26.6 °F 16.2 °F 19.4 °F 74% 29.87 in 7.0 mi WSW 11.5 mph - N/A Snow Light Snow
11:45 AM 26.6 °F 16.8 °F 19.4 °F 74% 29.87 in 10.0 mi SW 10.4 mph - N/A   Overcast
12:45 PM 28.4 °F 19.1 °F 19.4 °F 69% 29.86 in 10.0 mi WSW 10.4 mph - N/A   Overcast
1:45 PM 28.4 °F 18.0 °F 19.4 °F 69% 29.85 in 10.0 mi WSW 12.7 mph 18.4 mph N/A   Overcast
2:45 PM 28.4 °F 19.7 °F 17.6 °F 64% 29.85 in 10.0 mi WSW 9.2 mph - N/A   Overcast
3:45 PM 28.4 °F 18.5 °F 17.6 °F 64% 29.87 in 10.0 mi WSW 11.5 mph - N/A   Overcast
4:45 PM 26.6 °F 17.5 °F 17.6 °F 69% 29.87 in 10.0 mi SW 9.2 mph - N/A   Overcast
5:44 PM 24.8 °F 15.3 °F 17.6 °F 74% 29.88 in 10.0 mi WSW 9.2 mph - N/A   Scattered Clouds
6:45 PM 24.8 °F 16.9 °F 17.6 °F 74% 29.90 in 10.0 mi SW 6.9 mph - N/A   Mostly Cloudy
7:45 PM 24.8 °F 15.3 °F 17.6 °F 74% 29.91 in 10.0 mi WSW 9.2 mph - N/A   Overcast
8:15 PM 24.8 °F 15.3 °F 17.6 °F 74% 29.90 in 10.0 mi WSW 9.2 mph - N/A   Scattered Clouds
8:35 PM 24.8 °F 15.3 °F 17.6 °F 74% 29.91 in 10.0 mi WSW 9.2 mph - N/A   Mostly Cloudy
8:45 PM 23.0 °F 13.9 °F 19.4 °F 86% 29.91 in 10.0 mi WSW 8.1 mph - N/A   Scattered Clouds
9:15 PM 23.0 °F 14.7 °F 17.6 °F 80% 29.90 in 10.0 mi WSW 6.9 mph - N/A   Clear
9:35 PM 23.0 °F 15.8 °F 17.6 °F 80% 29.91 in 10.0 mi WSW 5.8 mph - N/A   Scattered Clouds
10:15 PM 23.0 °F 17.0 °F 17.6 °F 80% 29.90 in 10.0 mi West 4.6 mph - N/A   Mostly Cloudy
10:55 PM 21.2 °F 12.6 °F 15.8 °F 80% 29.90 in 10.0 mi WSW 6.9 mph - N/A   Scattered Clouds
11:15 PM 21.2 °F 12.6 °F 15.8 °F 80% 29.90 in 10.0 mi WSW 6.9 mph - N/A   Clear
11:35 PM 21.2 °F 12.6 °F 15.8 °F 80% 29.91 in 10.0 mi WSW 6.9 mph - N/A   Clear
11:55 PM 21.2 °F 12.6 °F 15.8 °F 80% 29.91 in 10.0 mi West 6.9 mph - N/A   Clear